Location: *
(40.4270°N, 9.4940°E)
Time: 12:08:34
(UTC+02:00)

Okean 2 - Visible Passes

Search period start: 04 July 2015 00:00
Search period end: 14 July 2015 00:00
Orbit: 566 x 581 km, 82.5° (Epoch: 03 July)

Date Brightness Start Highest point End Pass type
(mag) Time Alt. Az. Time Alt. Az. Time Alt. Az.
04 Jul 5.8 02:05:37 10° NE 02:08:00 15° ENE 02:09:25 13° E visible
04 Jul 3.9 03:41:18 10° NNW 03:45:13 39° W 03:45:36 38° WSW visible
05 Jul 5.5 02:08:12 10° NNE 02:11:14 20° ENE 02:12:09 19° E visible
05 Jul 4.4 03:44:35 10° NNW 03:48:15 30° W 03:48:21 29° W visible
06 Jul 5.1 02:10:56 10° NNE 02:14:25 26° ENE 02:14:55 25° E visible
06 Jul 4.8 03:47:57 10° NW 03:51:07 22° W 03:51:07 22° W visible
07 Jul 4.7 02:13:47 10° N 02:17:34 33° ENE 02:17:43 33° E visible
07 Jul 5.2 03:51:29 10° NW 03:53:55 17° W 03:53:55 17° W visible
08 Jul 4.2 02:16:43 10° N 02:20:32 44° ENE 02:20:32 44° ENE visible
08 Jul 5.6 03:55:15 10° WNW 03:56:43 13° WNW 03:56:43 13° WNW visible
09 Jul 3.9 02:19:41 10° N 02:23:21 56° NE 02:23:21 56° NE visible
10 Jul 3.8 02:22:44 10° N 02:26:12 60° N 02:26:12 60° N visible
11 Jul 4.0 02:25:49 10° NNW 02:29:04 51° NNW 02:29:04 51° NNW visible
12 Jul 6.0 00:54:14 10° NE 00:55:37 12° ENE 00:55:44 12° ENE visible
12 Jul 4.4 02:28:58 10° NNW 02:31:56 40° NW 02:31:56 40° NW visible
13 Jul 5.8 00:56:27 10° NE 00:58:38 15° ENE 00:58:38 15° ENE visible
13 Jul 4.8 02:32:10 10° NNW 02:34:49 31° NW 02:34:49 31° NW visible
